[[{"header":{"parameterUnit":"m.s-1","parameterCategory":1,"la1":30.2991,"la2":30.254,"lo1":-89.0895,"lo2":-89.0444,"dy":0.0017,"dx":0.0017,"nx":28,"ny":28,"refTime":"2024-07-23T21:00:00:Z","depth":0,"parameterNumber":2,"parameterNumberName":"U-component_of_WINDS"},"data":[0,0,0,0,0,0,0,0,0,0,0,0,0,0,0,0,0,0,0,0,0,0,0,0,0,0,0,0,0,0,0,0,0,0,0,0,0,0,0,0,0,0,0,0,0,0,0,0,0,0,0,0,0,0,0,0,0,0,2.0466,2.047,0,2.0769,2.0773,2.0776,2.0881,2.0879,2.0878,2.0877,2.1177,2.1186,2.1195,0,0,0,0,0,0,0,0,0,0,0,0,0,1.9971,1.998,2.0466,2.047,2.0474,2.0769,2.0773,2.0777,2.0881,2.0879,2.0878,2.0877,2.1174,2.1185,2.1196,0,0,0,0,0,0,0,0,0,0,0,0,0,2.0221,1.9982,2.0465,2.0561,2.0573,2.0768,2.0773,2.0778,2.0881,2.0879,2.0878,2.0876,2.117,2.1184,2.1197,2.1315,0,0,2.1239,2.1244,0,0,0,0,0,0,0,0,2.0206,2.0239,2.0544,2.0555,2.0569,2.0786,2.0708,2.0958,2.0881,2.0764,2.0877,2.0875,2.1047,2.1071,2.1131,2.1329,2.1342,2.124,2.1248,2.1254,2.1258,0,0,0,0,0,0,0,2.0189,2.0226,2.0586,2.0548,2.0563,2.0587,2.0621,2.0756,2.0911,2.0774,2.0782,2.0817,2.1054,2.1118,2.1139,2.1347,2.1239,2.1251,2.126,2.1265,2.166,2.1663,0,0,0,0,0,0,2.0157,2.0211,2.0576,2.0595,2.038,2.0597,2.0635,2.0717,2.091,2.0938,2.0818,2.0821,2.1096,2.1123,2.115,2.1304,2.1254,2.1266,2.1274,2.1658,2.1661,2.1664,0,0,0,0,0,0,2.0146,2.0188,2.0564,2.0406,2.0455,2.0608,2.07,2.0724,2.0789,2.0944,2.0971,2.0856,2.1095,2.1131,2.1275,2.1316,2.1273,2.1285,2.1655,2.1659,2.1662,2.161,0,0,0,0,0,0,2.0131,2.0184,2.0232,2.0406,2.0463,2.0686,2.0702,2.0731,2.0813,2.0819,2.0986,2.1012,2.1097,2.1254,2.1289,2.1333,2.1296,2.1652,2.1657,2.1661,2.1609,2.1611,2.1614,0,0,0,0,0,2.0113,2.0202,2.0234,2.0277,2.0527,2.0688,2.072,2.0819,2.0816,2.0865,2.0965,2.1007,2.1306,2.1268,2.1308,2.1357,2.165,2.1656,2.1661,2.1608,2.1611,2.1614,0,0,0,0,0,0,2.0023,2.0226,2.0264,2.0412,2.0533,2.0705,2.0769,2.0818,2.0939,2.094,2.1054,2.109,2.1226,2.1306,2.1261,2.1484,2.148,2.1494,2.1426,2.1431,2.1433,2.141,2.1307,0,0,0,0,0,2.0022,2.0138,2.0308,2.0422,2.0482,2.0615,2.0689,2.0755,2.0883,2.0933,2.1044,2.1163,2.1285,2.1362,2.1482,2.1621,2.166,2.1675,2.1677,2.1678,2.1688,2.177,2.178,2.1681,2.1681,2.1681,0,0,2.0018,2.0143,2.0209,2.0408,2.0509,2.0625,2.0657,2.0778,2.0865,2.095,2.1095,2.118,2.1322,2.1465,2.1533,2.1535,2.1725,2.1685,2.1685,2.1695,2.1777,2.1786,2.1794,2.1685,2.1684,2.1683,0,0,2.0071,2.0177,2.0286,2.0388,2.0543,2.0632,2.0657,2.0825,2.0886,2.1034,2.1101,2.1205,2.1411,2.1511,2.1588,2.1683,2.1726,2.1718,2.173,2.1809,2.1817,2.1824,2.1859,2.187,2.1728,2.1728,2.1728,0,2.0045,2.0226,2.0334,2.0454,2.054,2.0627,2.0738,2.083,2.1014,2.1071,2.1072,2.1336,2.1436,2.1605,2.1629,2.1688,2.1721,2.1699,2.1807,2.1816,2.1824,2.1859,2.1872,2.1726,2.1726,2.1726,2.1727,0,2.0188,2.0313,2.0381,2.0563,2.0656,2.077,2.0894,2.0975,2.1034,2.1122,2.1272,2.1398,2.1546,2.1591,2.1647,2.1769,2.1766,2.1786,2.1785,2.183,2.1865,2.1879,2.1723,2.1724,2.1725,2.1725,0,0,2.019,2.0433,2.0457,2.0541,2.072,2.0818,2.0936,2.1085,2.1154,2.1278,2.138,2.1555,2.1576,2.1663,2.1732,2.1801,2.1871,2.1813,2.1818,2.182,2.2014,2.1998,2.2012,2.1901,2.1904,2.1907,2.2002,0,2.0266,2.0486,2.0588,2.076,2.0878,2.0964,2.1068,2.1187,2.1274,2.1384,2.1478,2.1602,2.1619,2.1673,2.1746,2.1847,2.1911,2.1841,2.1996,2.2,2.1958,2.203,2.2013,2.2097,2.2017,2.2019,2.2021,0,2.0384,2.0515,2.07,2.0869,2.0922,2.1013,2.1161,2.1265,2.1403,2.1461,2.1562,2.1629,2.1756,2.1747,2.1923,2.1873,2.1943,2.2002,2.2008,2.2026,2.2012,2.205,2.2126,2.2139,2.2043,2.2041,2.2039,0,2.0369,2.059,2.0731,2.08,2.1,2.1063,2.1148,2.1285,2.137,2.1497,2.1554,2.1692,2.1768,2.1873,2.1976,2.196,2.2143,2.2142,2.2194,2.2191,2.2227,2.2224,2.2316,2.2271,2.2271,2.2271,2.2271,0,2.0444,2.0554,2.0727,2.0813,2.094,2.1056,2.1177,2.1269,2.1391,2.1495,2.1577,2.1673,2.1804,2.1915,2.1996,2.2131,2.2164,2.2213,2.2234,2.2207,2.22,2.2253,2.225,2.2274,2.2274,2.2273,2.2272,0,2.0446,2.0567,2.0727,2.0905,2.0953,2.1038,2.119,2.1276,2.1369,2.15,2.1537,2.1681,2.1818,2.1932,2.2109,2.2164,2.2304,2.2327,2.2258,2.2269,2.2315,2.2309,2.2445,2.2469,2.2406,2.2407,2.2407,0,2.0486,2.0574,2.0764,2.0842,2.0928,2.1052,2.1141,2.1259,2.1347,2.1514,2.158,2.1724,2.1845,2.2059,2.2178,2.2315,2.2342,2.2381,2.2363,2.2334,2.2344,2.2338,2.2348,2.2381,2.2381,2.2381,2.2381,0,2.0545,2.0601,2.0727,2.0876,2.098,2.1101,2.1224,2.1283,2.1424,2.1518,2.1662,2.1756,2.1941,2.2083,2.2233,2.2319,2.2374,2.2387,2.2406,2.2379,2.2336,2.2361,2.2262,2.2382,2.2382,2.2382,2.2382,2.2382,2.0568,2.0652,2.08,2.0938,2.1045,2.1159,2.125,2.1356,2.1479,2.1642,2.1704,2.185,2.1989,2.2198,2.2285,2.24,2.2407,2.2434,2.2441,2.2447,2.2444,2.2318,2.2428,2.2428,2.2428,2.2428,2.2428,0,2.0631,2.0733,2.0859,2.1032,2.1141,2.1188,2.1327,2.1414,2.1544,2.167,2.179,2.1956,2.2094,2.2226,2.2371,2.2438,2.2467,2.2472,2.2468,2.2488,2.2429,2.2398,2.2447,2.2447,2.2447,2.2447,2.2447,2.2447,2.0677,2.0822,2.0897,2.1095,2.1195,2.1343,2.1419,2.1524,2.1627,2.1809,2.1927,2.2014,2.2142,2.2298,2.2428,2.2463,2.2512,2.2511,2.2552,2.2495,2.2491,2.2488,2.246,2.2521,2.2521,2.2602,2.2603,2.2603]},{"header":{"parameterUnit":"m.s-1","parameterCategory":1,"la1":30.2991,"la2":30.254,"lo1":-89.0895,"lo2":-89.0444,"dy":0.0017,"dx":0.0017,"nx":28,"ny":28,"refTime":"2024-07-23T21:00:00:Z","depth":0,"parameterNumber":3,"parameterNumberName":"V-component_of_WINDS"},"data":[0,0,0,0,0,0,0,0,0,0,0,0,0,0,0,0,0,0,0,0,0,0,0,0,0,0,0,0,0,0,0,0,0,0,0,0,0,0,0,0,0,0,0,0,0,0,0,0,0,0,0,0,0,0,0,0,0,0,-3.5792,-3.5792,0,-3.5817,-3.5817,-3.5817,-3.5761,-3.5759,-3.5757,-3.5755,-3.5779,-3.5781,-3.5783,0,0,0,0,0,0,0,0,0,0,0,0,0,-3.5693,-3.5695,-3.5792,-3.5792,-3.5793,-3.5817,-3.5817,-3.5817,-3.5761,-3.5759,-3.5757,-3.5755,-3.5778,-3.578,-3.5783,0,0,0,0,0,0,0,0,0,0,0,0,0,-3.5729,-3.5696,-3.5792,-3.5768,-3.5766,-3.5817,-3.5817,-3.5818,-3.5761,-3.5759,-3.5756,-3.5753,-3.5777,-3.578,-3.5784,-3.5859,0,0,-3.5794,-3.5796,0,0,0,0,0,0,0,0,-3.5727,-3.5732,-3.5771,-3.5769,-3.5767,-3.5783,-3.5791,-3.5831,-3.5762,-3.5763,-3.5755,-3.5752,-3.5782,-3.5785,-3.5795,-3.586,-3.5861,-3.5794,-3.5797,-3.5798,-3.5799,0,0,0,0,0,0,0,-3.5724,-3.5731,-3.5802,-3.5771,-3.5769,-3.5754,-3.5756,-3.5798,-3.5787,-3.5763,-3.5759,-3.5762,-3.578,-3.5792,-3.5796,-3.5862,-3.5794,-3.5797,-3.58,-3.5801,-3.5988,-3.599,0,0,0,0,0,0,-3.5725,-3.5729,-3.5801,-3.5803,-3.574,-3.5758,-3.5761,-3.5781,-3.5787,-3.5785,-3.5765,-3.576,-3.5788,-3.5792,-3.5796,-3.5884,-3.5798,-3.5801,-3.5803,-3.5985,-3.5988,-3.5991,0,0,0,0,0,0,-3.5723,-3.5732,-3.58,-3.5765,-3.5772,-3.5763,-3.5786,-3.5783,-3.5794,-3.5788,-3.5786,-3.5779,-3.5786,-3.5791,-3.5844,-3.5884,-3.5803,-3.5806,-3.5981,-3.5986,-3.599,-3.606,0,0,0,0,0,0,-3.5721,-3.5732,-3.5761,-3.5766,-3.5774,-3.5848,-3.5788,-3.5785,-3.5801,-3.5794,-3.5801,-3.5799,-3.5784,-3.5839,-3.5847,-3.5887,-3.5809,-3.5978,-3.5983,-3.5989,-3.6054,-3.6067,-3.6077,0,0,0,0,0,-3.5717,-3.578,-3.5763,-3.5772,-3.5811,-3.5851,-3.5855,-3.5837,-3.5804,-3.5833,-3.5829,-3.5799,-3.5878,-3.5845,-3.5853,-3.5895,-3.5975,-3.5982,-3.5988,-3.6049,-3.6064,-3.6077,0,0,0,0,0,0,-3.578,-3.578,-3.5761,-3.5828,-3.584,-3.5841,-3.5877,-3.5854,-3.5875,-3.5868,-3.5843,-3.5845,-3.5902,-3.5904,-3.5866,-3.5968,-3.5921,-3.5929,-3.5964,-3.5979,-3.599,-3.5988,-3.5811,0,0,0,0,0,-3.5802,-3.5835,-3.5833,-3.5891,-3.5898,-3.5887,-3.5903,-3.5888,-3.5899,-3.5904,-3.5904,-3.5915,-3.5942,-3.596,-3.5985,-3.6055,-3.6054,-3.6087,-3.6099,-3.6108,-3.6116,-3.6151,-3.6165,-3.6013,-3.6013,-3.6013,0,0,-3.5846,-3.585,-3.5873,-3.5904,-3.5911,-3.5945,-3.5891,-3.593,-3.5954,-3.5909,-3.5959,-3.5959,-3.597,-3.6031,-3.6057,-3.6034,-3.6158,-3.6116,-3.6124,-3.6126,-3.6159,-3.6174,-3.6186,-3.6017,-3.6016,-3.6016,0,0,-3.5945,-3.5952,-3.6001,-3.6009,-3.6021,-3.6013,-3.6025,-3.603,-3.6029,-3.6078,-3.6045,-3.6073,-3.6121,-3.6129,-3.614,-3.6241,-3.6214,-3.625,-3.6308,-3.6343,-3.6355,-3.6366,-3.64,-3.6413,-3.6257,-3.6257,-3.6257,0,-3.5998,-3.6049,-3.6029,-3.6069,-3.6083,-3.6045,-3.6093,-3.6102,-3.6122,-3.6132,-3.6105,-3.6163,-3.6168,-3.623,-3.6254,-3.6265,-3.6276,-3.6248,-3.6355,-3.6366,-3.6375,-3.6408,-3.6421,-3.6262,-3.6261,-3.6261,-3.626,0,-3.6113,-3.6149,-3.6187,-3.6207,-3.6225,-3.6269,-3.6255,-3.6275,-3.6258,-3.6253,-3.6303,-3.6307,-3.6331,-3.6345,-3.6329,-3.6404,-3.6389,-3.636,-3.6312,-3.6394,-3.6424,-3.6437,-3.6268,-3.6266,-3.6265,-3.6264,0,0,-3.6252,-3.626,-3.6274,-3.6282,-3.6292,-3.6319,-3.6361,-3.6385,-3.6403,-3.6417,-3.6451,-3.6492,-3.6464,-3.6476,-3.6461,-3.6491,-3.6569,-3.6458,-3.6457,-3.6477,-3.6651,-3.6673,-3.6688,-3.6552,-3.6554,-3.6556,-3.665,0,-3.6348,-3.6421,-3.6404,-3.6475,-3.6507,-3.647,-3.6507,-3.6516,-3.6512,-3.6537,-3.6532,-3.6561,-3.6523,-3.653,-3.6559,-3.6554,-3.6604,-3.6547,-3.6582,-3.6583,-3.6579,-3.6704,-3.6727,-3.6816,-3.6662,-3.6664,-3.6665,0,-3.6471,-3.649,-3.6565,-3.6569,-3.6581,-3.6614,-3.6635,-3.666,-3.6669,-3.6664,-3.6677,-3.6655,-3.6695,-3.6648,-3.6702,-3.6664,-3.6677,-3.6677,-3.668,-3.6681,-3.6629,-3.6708,-3.6844,-3.6857,-3.6684,-3.6683,-3.6681,0,-3.6563,-3.6608,-3.6658,-3.6666,-3.6672,-3.6696,-3.67,-3.6707,-3.6722,-3.6739,-3.6749,-3.6771,-3.6783,-3.68,-3.6784,-3.6751,-3.684,-3.6791,-3.6835,-3.6836,-3.6855,-3.6854,-3.6994,-3.6866,-3.6865,-3.6865,-3.6865,0,-3.6672,-3.6719,-3.6699,-3.673,-3.6781,-3.676,-3.6811,-3.681,-3.6816,-3.6845,-3.6815,-3.6843,-3.6821,-3.6846,-3.6834,-3.688,-3.6886,-3.6882,-3.6878,-3.6884,-3.6884,-3.6892,-3.6885,-3.6869,-3.6868,-3.6867,-3.6867,0,-3.6783,-3.6772,-3.6824,-3.6826,-3.6827,-3.6864,-3.6865,-3.6893,-3.6886,-3.6924,-3.6931,-3.692,-3.6949,-3.6935,-3.6964,-3.6956,-3.7015,-3.7003,-3.7012,-3.7009,-3.7053,-3.7049,-3.7201,-3.722,-3.7081,-3.7082,-3.7083,0,-3.6853,-3.6888,-3.6893,-3.6911,-3.6917,-3.6946,-3.6961,-3.6942,-3.6959,-3.6972,-3.6998,-3.7024,-3.7043,-3.709,-3.7085,-3.7107,-3.7095,-3.7147,-3.7098,-3.7103,-3.7094,-3.7092,-3.7095,-3.7156,-3.7158,-3.7159,-3.716,0,-3.6978,-3.697,-3.6994,-3.7016,-3.7036,-3.7052,-3.7065,-3.7081,-3.7062,-3.7082,-3.7111,-3.7127,-3.7157,-3.7182,-3.7201,-3.7204,-3.7179,-3.7176,-3.7187,-3.7193,-3.7197,-3.7194,-3.7038,-3.7172,-3.7171,-3.717,-3.717,-3.7169,-3.707,-3.7099,-3.7107,-3.7134,-3.7142,-3.7155,-3.7181,-3.7178,-3.7202,-3.7225,-3.7212,-3.7245,-3.7253,-3.7276,-3.7282,-3.7307,-3.7286,-3.7303,-3.7307,-3.7311,-3.7316,-3.7193,-3.731,-3.731,-3.731,-3.7309,-3.7309,0,-3.7192,-3.7195,-3.7221,-3.724,-3.7262,-3.7237,-3.725,-3.7269,-3.7299,-3.7309,-3.7328,-3.7361,-3.7386,-3.7382,-3.7404,-3.7425,-3.7414,-3.7431,-3.7429,-3.743,-3.7334,-3.7322,-3.744,-3.744,-3.744,-3.744,-3.744,-3.744,-3.7258,-3.7306,-3.7299,-3.735,-3.7352,-3.7385,-3.7395,-3.7406,-3.7414,-3.7452,-3.7472,-3.747,-3.7473,-3.7495,-3.7516,-3.7515,-3.7524,-3.7545,-3.7539,-3.745,-3.7437,-3.7424,-3.7413,-3.7548,-3.7548,-3.7633,-3.7633,-3.7634]}]]